Location: Unspecified
(0.0000°N, 0.0000°E)
Time: 07:14:00
(UTC+00:00)

Vanguard 1 - All Passes

Search period start: 25 May 2016 00:00
Search period end: 04 June 2016 00:00
Orbit: 650 x 3834 km, 34.2° (Epoch: 23 May)

Date Brightness Start Highest point End Pass type
(mag) Time Alt. Az. Time Alt. Az. Time Alt. Az.
25 May - 03:54:51 10° WNW 03:59:22 75° SW 04:05:54 10° SE visible
25 May - 06:17:38 10° SW 06:21:45 16° SSW 06:27:14 10° SSE daylight
25 May - 08:46:41 10° S 08:49:07 11° S 08:51:46 10° SSE daylight
25 May - 11:07:27 10° SSW 11:20:30 22° SSE 11:36:29 10° ESE daylight
25 May - 13:29:15 10° SW 13:50:39 53° SE 14:11:20 10° ENE daylight
25 May - 15:54:37 10° WSW 16:18:30 75° NW 16:35:42 10° NE daylight
25 May - 18:28:12 10° W 18:44:04 27° NW 18:54:56 10° NNE visible
26 May - 01:57:31 10° N 02:00:30 17° NE 02:03:33 10° ENE night (unlit)
26 May - 04:16:09 10° WNW 04:20:34 41° SSW 04:26:55 10° SE visible
26 May - 06:41:28 10° SSW 06:43:57 11° SSW 06:46:49 10° S daylight
26 May - 09:08:55 10° S 09:12:23 11° S 09:16:17 10° SSE daylight
26 May - 11:28:21 10° SSW 11:43:24 28° SSE 12:01:37 10° E daylight
26 May - 13:50:22 10° SW 14:12:42 64° SE 14:33:34 10° ENE daylight
26 May - 16:16:54 10° WSW 16:40:05 61° NW 16:56:38 10° NE daylight
26 May - 18:53:28 10° WNW 19:05:56 20° NW 19:15:01 10° N visible
27 May - 02:17:32 10° NNW 02:21:33 32° NE 02:25:53 10° ESE visible
27 May - 04:37:55 10° W 04:41:59 25° SSW 04:47:33 10° SSE visible
27 May - 09:29:47 10° S 09:35:40 13° SSE 09:42:40 10° SE daylight
27 May - 11:49:10 10° SSW 12:05:57 34° SSE 12:25:57 10° E daylight
27 May - 14:11:38 10° SW 14:34:35 78° SE 14:55:22 10° ENE daylight
27 May - 16:39:40 10° WSW 17:01:41 48° NW 17:17:23 10° NNE daylight
27 May - 19:19:52 10° WNW 19:28:08 15° NNW 19:34:41 10° N visible
28 May - 02:38:09 10° NW 02:42:32 66° NE 02:47:31 10° ESE visible
28 May - 05:00:24 10° WSW 05:03:37 16° SSW 05:07:40 10° SSE visible
28 May - 09:50:22 10° S 09:58:48 16° SSE 10:09:23 10° SE daylight
28 May - 12:10:00 10° SSW 12:28:12 43° SE 12:49:31 10° E daylight
28 May - 14:33:07 10° SW 14:56:23 88° NW 15:16:51 10° NE daylight
28 May - 17:03:04 10° W 17:23:24 38° NW 17:38:00 10° NNE daylight
28 May - 19:48:40 10° NNW 19:50:40 10° NNW 19:52:33 10° NNW visible
29 May - 00:41:26 10° N 00:43:07 11° NNE 00:44:42 10° NE night (unlit)
29 May - 02:59:12 10° WNW 03:03:32 62° SW 03:08:40 10° SE visible
29 May - 10:10:51 10° SSW 10:21:40 20° SSE 10:35:41 10° ESE daylight
29 May - 12:30:51 10° SW 12:50:13 53° SE 13:12:26 10° ENE daylight
29 May - 14:54:52 10° WSW 15:18:07 74° NW 15:38:04 10° NE daylight
29 May - 17:27:14 10° W 17:45:19 30° NW 17:58:31 10° NNE daylight
30 May - 01:00:42 10° NNW 01:04:31 21° NNE 01:07:53 10° E night (unlit)
30 May - 03:20:43 10° W 03:24:40 32° SSW 03:29:25 10° SSE visible
30 May - 10:31:21 10° SSW 10:44:11 26° SSE 11:01:12 10° E daylight
30 May - 12:51:50 10° SW 13:12:05 65° SE 13:34:48 10° ENE daylight
30 May - 15:17:01 10° WSW 15:39:53 61° NW 15:59:06 10° NE daylight
30 May - 17:52:17 10° WNW 18:07:33 23° NNW 18:18:56 10° NNE daylight
31 May - 01:21:03 10° NW 01:25:43 38° NE 01:29:51 10° ESE night (unlit)
31 May - 03:42:52 10° WSW 03:45:59 18° SSW 03:49:37 10° SSE visible
31 May - 10:51:53 10° SSW 11:06:23 33° SE 11:25:48 10° E daylight
31 May - 13:12:58 10° SW 13:33:53 79° SE 13:56:44 10° ENE daylight
31 May - 15:39:38 10° WSW 16:01:44 49° NW 16:19:59 10° NE daylight
31 May - 18:18:15 10° WNW 18:30:05 18° NNW 18:39:16 10° N visible
31 May - 23:24:25 10° N 23:25:18 10° NNE 23:26:09 10° NNE visible
01 Jun - 01:41:52 10° NW 01:46:46 78° NE 01:51:14 10° ESE night (unlit)
01 Jun - 04:07:03 10° SSW 04:07:30 10° SSW 04:07:59 10° SSW visible
01 Jun - 08:55:22 10° S 09:00:49 13° SSE 09:07:23 10° SE daylight
01 Jun - 11:12:30 10° SSW 11:28:18 42° SE 11:49:36 10° ENE daylight
01 Jun - 13:34:20 10° SW 13:55:39 87° NW 14:18:20 10° NE daylight
01 Jun - 16:02:51 10° W 16:23:45 39° NW 16:40:46 10° NNE daylight
01 Jun - 18:45:00 10° NW 18:52:57 14° NNW 18:59:30 10° N visible
01 Jun - 23:43:00 10° NNW 23:47:03 17° NNE 23:50:18 10° ENE visible
02 Jun - 02:03:09 10° WNW 02:07:46 51° SW 02:12:10 10° SE night (unlit)
02 Jun - 09:14:56 10° S 09:23:19 17° SSE 09:34:23 10° ESE daylight
02 Jun - 11:33:13 10° SW 11:50:03 53° SE 12:12:41 10° ENE daylight
02 Jun - 13:55:58 10° WSW 14:17:27 73° NW 14:39:41 10° NE daylight
02 Jun - 16:26:48 10° W 16:46:01 31° NNW 17:01:31 10° NNE daylight
02 Jun - 19:12:20 10° NNW 19:16:04 11° NNW 19:19:26 10° N visible
03 Jun - 00:03:11 10° NNW 00:08:34 28° NNE 00:12:35 10° E night (unlit)
03 Jun - 02:24:56 10° W 02:28:47 26° SW 02:32:39 10° SSE night (unlit)
03 Jun - 09:34:58 10° SSW 09:45:29 24° SE 10:00:13 10° E daylight
03 Jun - 11:54:05 10° SW 12:11:42 66° SE 12:35:12 10° ENE daylight
03 Jun - 14:17:58 10° WSW 14:39:22 60° NW 15:00:50 10° NE daylight
03 Jun - 16:51:33 10° WNW 17:08:35 25° NNW 17:22:15 10° NNE daylight
03 Jun - 22:04:28 10° N 22:07:02 11° NNE 22:09:15 10° NNE visible
